STARLINK-1423, 45710

Orbit data source: Space-Track

STARLINK-1423, 45710 is a payload satellite owned by SpaceX/Seattle (US) in LEO that was launched on Thu, 04 Jun 2020 UTC via an FALCON 9 launch vehicle from the Air Force Eastern Test Range (AFETR). Payload-class satellites include a variety of spacecraft equipped with specific instruments for various scientific and technological missions. These include communications satellites like Starlink; space stations such as the ISS; scientific satellites like the Hubble; Earth observation satellites from companies like Planet Labs, Umbra, and HawkEye 360; GPS; miniature CubeSats for education and research; and military/defense satellites.

Loading next visibility...
Identifier
45710, 2020-035BF
Orbit
LEO
Country
Flag of USUS
Related business
Manufacturer
SpaceX/Seattle
Mission
Partially operational Commercial Communications
Bus & Motor
STARLINK, Unknown motor
Mass
260 kg wet, ~248 kg dry
Launch date (UTC)
2020-06-04 (6 years ago)
Launch vehicle
FALCON 9
Launch site
Air Force Eastern Test Range (AFETR)
Object type
Payload
Rocket body
Debris
Shape & HBR
Box + 1 Pan, 10.1 m
Radar Cross Section
13.562 m², Large (>1 m²)

Expand to show TLE details & history
Last TLE update: 12 hours ago

TLE from 12 hours ago
0 STARLINK-1423
1 45710U 20035BF  26167.52049803  .00047690  00000-0  38796-3 0  9992
2 45710  53.0432 258.4962 0004490 100.2534 259.8989 15.70207447334809
Epoch: 2026-06-16T12:29Z
TLE epoch observation values (Epoch: 2026-06-16T12:29:31.029Z)
Latitude
-0.00004°
Longitude
166.32553°
Altitude
359.738 km
Speed
7.694 km/s
True Right ascension
17h 13m 59s
True Declination
0° 00' 00"
Sunlit
Object was in full shadow at epoch
Visualization orbit readout
Latitude
Unknown
Longitude
Unknown
Altitude
Unknown
Speed
Unknown
Apparent Right ascension
Unknown
Apparent Declination
Unknown
Sunlit
N/A
Visualization observer readout
Local Sidereal Time
11:13:12
Azimuth
Unknown
Elevation
Unknown
Doppler factor
Unknown
Orbital elements
Apogee altitude
361.608 km
Perigee altitude
355.559 km
Semi-major axis
6,736.721 km
Eccentricity
0.00045
Inclination
53.0432°
RAAN
258.4962°
Arg. of periapsis
100.2534°
True anomaly
259.84825°
Mean anomaly
259.8989°
Eccentric anomaly
259.87357°
Mean motion
3.92528 °/min
Orbital period
91.71 mins
BSTAR
0.00038796
Loading maneuver chart data...
Computing Atmospheric mass density...

Documentation

Showing up to 5 results
|